Regional Weather Roundup
Issued by NWS Charleston, SC

Current Version | Previous Version | Graphics & Text | Print | Product List | Glossary On
Versions: 1 2 3 4 5 6 7 8 9 10 11 12 13 14 15 16 17 18 19 20 21 22 23 24 25 26 27 28 29 30 31 32 33 34 35 36 37 38 39 40 41 42 43 44 45 46 47 48 49 50
000
ASUS42 KCHS 300810
RWRCHS

REGIONAL WEATHER ROUNDUP
NATIONAL WEATHER SERVICE CHARLESTON SC
400 AM EDT TUE SEP 30 2014

NOTE: "FAIR" INDICATES FEW OR NO CLOUDS BELOW 12,000 FEET WITH NO
SIGNIFICANT WEATHER AND/OR OBSTRUCTIONS TO VISIBILITY.

NOT ALL STATIONS ARE QUALITY CONTROLLED BY THE NATIONAL
WEATHER SERVICE. USE DATA WITH CAUTION...ESPECIALLY
DEWPOINT OBSERVATIONS.

SCZ027-030-031-034>040-042>050-300900-
...SOUTH CAROLINA...

CITY           SKY/WX    TMP DP  RH WIND       PRES   REMARKS
N CHARLESTON   CLOUDY    66  63  90 N8        29.87F
WATERFRONT PRK NOT AVBL
FORT JOHNSON   NOT AVBL
MOUNT PLEASANT DRIZZLE   64  64 100 N6        29.87S
JOHNS ISLAND   CLOUDY    66  66 100 N7        29.87S
PINOPOLIS        N/A     66  63  88 NE10      29.83F
MONCKS CORNER  CLOUDY    64  64 100 N3        29.88F
SUMMERVILLE    PTSUNNY   63  63 100 N5        29.89F
BEAUFORT MCAS  CLOUDY    67  64  90 N10       29.87S
BEAUFORT ARPT  CLOUDY    66  66 100 N7        29.86S
HILTON HEAD IS CLOUDY    70  66  88 N9        29.87S
GEORGETOWN     NOT AVBL
WALTERBORO     CLOUDY    64 N/A N/A N3        29.89F HAZE
ORANGEBURG     MOCLDY    63  60  90 NE5       29.90F
BARNWELL       CLOUDY    64  63  94 NE3       29.91F
AIKEN          FAIR      63  63 100 N3        29.95F
MANNING        PTSUNNY   63 N/A N/A N5        29.90F
KINGSTREE      NOT AVBL
COLUMBIA       CLEAR     66  60  81 N3        29.91F
SUMTER         CLEAR     61  57  88 N3        29.90F
FLORENCE       PTCLDY    61  59  93 N3        29.90F
MYRTLE BEACH   CLOUDY    66  61  82 N7        29.88F
N MYRTLE BEACH CLOUDY    65  63  93 N6        29.88F

$$

GAZ063-065-086>088-099>101-113>116-118-119-134-136>141-150-300900-
...GEORGIA...

CITY           SKY/WX    TMP DP  RH WIND       PRES   REMARKS
SAVANNAH ARPT  CLOUDY    68  64  88 N7        29.86F
HUNTER AAF     CLOUDY    68  66  93 N5        29.84S
FORT STEWART   CLOUDY    67  65  92 NE9       29.85S
STATESBORO     NOT AVBL
SYLVANIA       CLOUDY    69  68  98 NE6       29.89F
CLAXTON          N/A     68  68 100 CALM      29.88S
THOMSON        CLOUDY    68  68 100 CALM      29.96F
AUGUSTA-BUSH   CLOUDY    67  64  90 NE3       29.90F
AUGUSTA-DANIEL CLOUDY    69  65  86 NE5       29.92F
SWAINSBORO     CLOUDY    68  68 100 NE5       29.91S
VIDALIA        CLOUDY    68  66  94 NE8       29.89S
ALMA           CLOUDY    68  66  93 N5        29.86S
WAYCROSS       CLOUDY    71  71  99 NE7       29.85S FOG
JESUP          DRIZZLE   70  70 100 NE7       29.86F
BRUNSWICK      CLOUDY    72  70  94 N8        29.84S
SAINT SIMONS   CLOUDY    72  71  97 N10       29.82F

$$

SCZ027-028-034-036>038-045-046-048>050-GAZ119-141-300900-
...LAKE AND SUPPLEMENTAL COASTAL OBSERVATIONS...

STATION/POSITION TIME  TEMP    WIND        PRES    WAVE   SWELL
                       AIR SEA DIR/SP/G            HT/PER HT/PER/DIR
                 (UTC) (F)     (DEG/KT/KT) (MB)    (FT/S) (FT/S/D)
UPR LAKE MARION  NOT AVBL
WINYAH BAY       0700   64     360/  6     1012.0S
LAKE MURRAY      0700   65      10/  1/  3 1012.9F
ACE BASIN NERRS  0700   66      20/  3     1012.0S
FORT PULASKI     0800   70      10/ 11/ 13 1011.0S
SAPELO ISLAND    NOT AVBL

$$

ANZ835-935-AMZ111-154-330-350-352-354-374-450-454-472-300900-
...C-MAN AND BUOY OBSERVATIONS...

STATION/POSITION TIME  TEMP    WIND        PRES    WAVE   SWELL
                       AIR SEA DIR/SP/G            HT/PER HT/PER/DIR
                 (UTC) (F)     (DEG/KT/KT) (MB)    (FT/S) (FT/S/D)
FOLLY BEACH CMAN 0700   67      10/ 12/ 14 1011.8F
BUOY 41004       0800   77 81   40/ 16/ 17 1009.2F   5/ 6   2/ 8
BUOY 41008       0800   75 79   30/ 17/ 21 1009.2F   5/ 6
5E ST. MARYS GA  0800      80                N/A     3/ 5
FRYING PAN BUOY  NOT AVBL
BUOY 41025       0800   71     350/ 17/ 19 1011.1F   3/ 8   2/ 70/ 8
CAPE LOOKOUT NC  0700   69      10/ 11/ 13 1011.9F
BUOY 41002       0746   79 81  160/  8/  8 1010.7F   3/ 8   3/ 80/ 8
BUOY 41010       0800   80 85  230/ 12/ 14 1009.0F   3/ 8   3/ 80/ 8
BUOY 41012       NOT AVBL
ST AUGUSTINE FL  0800   73     240/  6/  9 1009.6F
CAPERS NEARSHORE 0700   69      30/ 14/ 16   N/A
FRIPP NEARSHORE  NOT AVBL


$$


USA.gov is the U.S. government's official web portal to all federal, state and local government web resources and services.